Terminal Aerodrome Forecast
Issued by NWS Detroit/Pontiac, MI

Home | Current Version | Previous Version | Text Only | Print | Product List | Glossary On
Versions: 1 2 3 4 5 6 7 8 9 10 11 12 13 14 15 16 17 18 19
000
FTUS43 KDTX 231700
TAFFNT
TAF
KFNT 231720Z 2318/2418 25007KT P6SM SKC
     FM240100 00000KT P6SM SKC
     FM240900 14002KT 5SM BR SCT008
     FM241300 14005KT P6SM SKC=

USA.gov is the U.S. government's official web portal to all federal, state and local government web resources and services.